SL-8 R/B (2802 NORAD) Tracking and Keplerian Element Data

This shows tracking and keplerian element data for the satellite.

Feedback or suggestion? Click here.




ElementValue
Catalog2802
NameSL-8 R/B
Epoch Orbit7745
Epoch Day353.64421105
Epoch Year2025
RAAN137.5699
Inclination74.0103
Eccentricity0.0063961
Argument of Perigee165.204
Mean Anonmoly195.101
Mean Motion14.45544034
Decay Rate3.25E-06
L11 02802U 67045B 25353.64421105 .00000325 00000+0 97706-4 0 9997
L22 02802 74.0103 137.5699 0063961 165.2040 195.1010 14.45544034 77456



Live tracking and technical data element details for SL-8 R/B (NORAD 2802). SL-8 R/B can be tracked NOW for your location showing map with azimuth and elevation plus other details from your city location.







IsCatalogInMostPopularTable: catalog: 2802, numindb: 402
Update: records affected: 1



GetName: 2802 SL-8 R/B

Hit Count: updated at: Sat, 07 Mar 2026 05:29:32 GMT